Regional Weather Roundup
Issued by NWS State College, PA

Home | Current Version | Previous Version | Text Only | Print | Product List | Glossary On
Versions: 1 2 3 4 5 6 7 8 9 10 11 12 13 14 15 16 17 18 19 20 21 22 23 24 25 26 27 28 29 30 31 32 33 34 35 36 37 38 39 40 41 42 43 44 45 46 47 48 49 50
000
ASUS41 KCTP 200710
RWRCTP

REGIONAL WEATHER ROUNDUP
NATIONAL WEATHER SERVICE STATE COLLEGE PA
300 AM EDT FRI OCT 20 2017

Note: "fair" indicates few or no clouds below 12,000 feet with no
significant weather and/or obstructions to visibility.

* = STATION THAT DOES NOT REPORT PRECIPITATION /E.G. RAIN...SNOW...ETC/
    THUNDER OR FOG.

PAZ002>004-007>009-013>016-020>023-029>032-200800-
WESTERN PENNSYLVANIA

CITY           SKY/WX    TMP DP  RH WIND       PRES   REMARKS
ERIE           FAIR      47  45  93 S5        30.18R
MEADVILLE      FAIR      52  49  89 W5        30.20R
FRANKLIN*      FAIR      50  47  89 W6        30.20R
NEW CASTLE     FAIR      48  48 100 CALM      30.21R
BEAVER COUNTY  NOT AVBL
BUTLER*        FAIR      51  47  86 CALM      30.20S
PITTSBURGH INT FAIR      54  47  77 SW3       30.19F
PITTSBURGH     FAIR      56  45  66 SW8       30.19F
INDIANA*       CLOUDY    48  45  87 CALM      30.22S
LATROBE        FAIR      52  45  76 SW9       30.21S
WASHINGTON CO* FAIR      52  46  80 CALM      30.24S
$$

PAZ004>006-010>012-017>019-024>028-033>037-041-042-045-046-049>053-200800-
CENTRAL PENNSYLVANIA

CITY           SKY/WX    TMP DP  RH WIND       PRES   REMARKS
BRADFORD       FAIR      45  44  97 CALM      30.17S
DUBOIS         FAIR      49  44  83 SW5       30.18R
CLEARFIELD     FAIR      51  47  86 W3        30.18S
JOHNSTOWN      FAIR      56  45  66 W12G21    30.19S
ALTOONA        FAIR      57  46  66 CALM      30.19R
STATE COLLEGE  FAIR      55  45  69 W7        30.17S
WILLIAMSPORT   FAIR      48  45  89 CALM      30.14S
SELINSGROVE    FAIR      45  45 100 CALM      30.15S
FT INDIANTOWN  FAIR      48  48 100 CALM      30.14S
CAPITAL CITY   FAIR      50  45  83 CALM      30.15R
HARRISBURG     FAIR      50  49  96 CALM      30.14S
YORK           FAIR      49  46  90 CALM      30.15S
$$

PAZ038>040-043-044-047-048-054-055-060>062-067>071-200800-
EASTERN PENNSYLVANIA

CITY           SKY/WX    TMP DP  RH WIND       PRES   REMARKS
SCRANTON       FAIR      55  45  68 SW6       30.13S
MOUNT POCONO   FAIR      53  44  71 W10       30.11S
ALLENTOWN      FAIR      50  45  83 SW7       30.11F
QUAKERTOWN*    FAIR      46  45  93 CALM      30.13S
READING        FAIR      54  50  86 CALM      30.12S
LANCASTER      FAIR      52  48  86 CALM      30.14S
COATESVILLE    FAIR      52  46  82 W6        30.15S
POTTSTOWN      FAIR      47  47 100 CALM      30.14S
BLUE BELL      FAIR      46  46 100 CALM      30.13F
DOYLESTOWN     FAIR      53  48  83 S3        30.11F
WILLOW GROVE   NOT AVBL
NORTH PHILA    FAIR      54  49  83 CALM      30.13F
PHILADELPHIA   FAIR      56  53  90 W6        30.13F
$$



USA.gov is the U.S. government's official web portal to all federal, state and local government web resources and services.